x

Port Orford - 15 Nm West Of Port Orford, Or (46015) Weather Station

7:20pm - Sat 21st Oct 2017 All times are PDT. -7 hours from GMT.

  • Wind
    29mph, 34mph gusts
  • Sea Temp 56°f
  • Air Temp 57°f
  • Sea Pressure 1019.3mb
  • Port Orford - 15 Nm West Of Port Orford, Or
  • Port Orford - 15 Nm West Of Port Orford, Or

More Historic Weather Station data

Upgrade to MSW Pro to gain access to the past 30 days of data for over 8000 Wavebouys and Weather Stations around the globe.

Join

Comparision Forecast

View Surf forecast
   
Sat 10/21 7:20pm  -   -   -  29 34 mph 1019.3mb 56f 57f
7:10pm  -   -   -  29 38 mph 1019.1mb 56f 57f
7:00pm  -   -   -  27 36 mph 1019mb 56f 57f
6:30pm  -   -   -  27 34 mph 1018.7mb 56f 57f
6:20pm  -   -   -  27 34 mph 1018.6mb 56f 57f
6:10pm  -   -   -  27 36 mph 1018.5mb 56f 57f
6:00pm  -   -   -  27 34 mph 1018.4mb 56f 57f
5:50pm 13.5ft 12s 8s 27 34 mph 1018.3mb 56f 57f
5:40pm 13.5ft  -  8s 27 36 mph 1018.1mb 56f 57f
5:30pm  -   -   -  27 34 mph 1018.2mb 56f 57f
5:20pm  -   -   -  27 31 mph 1018.2mb - 57f
5:10pm  -   -   -  25 31 mph 1018.2mb 56f 57f
5:00pm  -   -   -  25 31 mph 1018mb 56f 57f
4:50pm 14ft 14s 8s 27 34 mph 1018.4mb 56f 57f
4:40pm 14ft  -  8s 27 31 mph 1018.4mb 56f 58f
4:30pm  -   -   -  25 31 mph 1018.3mb 56f 57f
4:20pm  -   -   -  25 31 mph 1018.2mb 56f 58f
4:10pm  -   -   -  25 31 mph 1018.3mb 56f 58f
4:00pm  -   -   -  27 34 mph 1018.2mb 56f 58f
3:50pm 15ft 13s 8s 27 34 mph 1018mb 56f 58f
3:40pm  -   -   -  25 31 mph 1017.9mb 56f 58f
3:30pm  -   -   -  25 29 mph 1017.8mb - -
3:20pm  -   -   -  25 31 mph 1017.7mb 56f 57f
3:10pm  -   -   -  25 31 mph 1017.5mb 56f 57f
3:00pm  -   -   -  25 31 mph 1017.4mb - 58f
2:50pm 13.5ft 14s 8s 25 31 mph 1017.6mb 56f 58f
2:40pm 13.5ft  -  8s 25 34 mph 1017.6mb 56f 58f
2:30pm  -   -   -  25 31 mph 1017.5mb 56f 57f
2:20pm  -   -   -  25 34 mph 1017.5mb 56f 57f
2:10pm  -   -   -  25 31 mph 1017.4mb 56f 58f
2:00pm  -   -   -  25 34 mph 1017.5mb 56f 57f
1:50pm 15ft 14s 8s 25 34 mph 1017.5mb 56f 57f
1:40pm 15ft  -  8s 27 31 mph 1017.4mb 56f 57f
1:30pm  -   -   -  27 38 mph 1017.2mb 56f 57f
1:20pm  -   -   -  27 34 mph 1017.1mb 56f 57f
1:10pm  -   -   -  27 34 mph 1016.9mb 56f 57f
1:00pm  -   -   -  27 36 mph 1017.2mb 56f 57f
12:50pm 13.5ft 8s 7s 27 34 mph 1017.4mb 56f 57f
12:40pm  -   -   -  27 36 mph 1017.3mb 56f 57f
12:30pm  -   -   -  27 34 mph 1017.1mb 56f 56f
12:20pm  -   -   -  27 34 mph 1017mb 56f 56f
12:10pm  -   -   -  27 34 mph 1016.7mb 56f 56f
12:00pm  -   -   -  27 34 mph 1016.5mb - 56f
11:50am 14ft 13s 8s 27 36 mph 1016.5mb 56f 56f
11:40am  -   -   -  27 36 mph 1016.4mb 56f 55f
11:30am  -   -   -  27 36 mph 1016.3mb 56f 55f
11:20am  -   -   -  29 36 mph 1016.2mb 56f 55f
11:10am  -   -   -  31 40 mph 1016.1mb 56f 54f
11:00am  -   -   -  29 38 mph 1015.9mb 56f 54f
10:50am 16.5ft 9s 8s 29 38 mph 1016mb 56f 54f
10:40am 16.5ft  -  8s 31 40 mph 1015.8mb 56f 54f
10:30am  -   -   -  31 40 mph 1015.7mb 56f 54f
10:20am  -   -   -  31 40 mph 1015.7mb 56f 53f
10:10am  -   -   -  34 43 mph 1015.5mb 55f 53f
10:00am  -   -   -  34 47 mph 1015.7mb 55f 53f
9:50am 16.5ft 15s 8s 36 49 mph 1015.5mb 55f 53f
9:40am 16.5ft  -  8s 34 43 mph 1015.7mb 55f 53f
9:30am  -   -   -  36 47 mph 1015.5mb 55f 53f
9:20am  -   -   -  36 45 mph 1015.2mb 55f 53f
9:10am  -   -   -  38 49 mph 1015.2mb 55f 52f
9:00am  -   -   -  38 49 mph 1015.1mb 55f 52f
8:50am 15.5ft 8s 7s 34 45 mph 1015.3mb 55f 52f
8:40am 15.5ft  -  7s 36 45 mph 1015.2mb 55f 52f
8:30am  -   -   -  34 49 mph 1014.7mb 55f 52f
8:20am  -   -   -  34 51 mph 1014.4mb 55f 52f
8:10am  -   -   -  36 49 mph 1014.4mb 55f 52f
8:00am  -   -   -  38 47 mph 1014.4mb 55f 52f
7:50am 16.5ft 8s 7s 38 49 mph 1014.3mb 55f 52f
7:40am 16.5ft  -  7s 38 49 mph 1014.3mb 55f 52f
7:30am  -   -   -  38 47 mph 1014.2mb 55f 52f
7:20am  -   -   -  40 54 mph 1014.3mb 55f 52f
7:10am  -   -   -  38 49 mph 1014.4mb 55f 52f
7:00am  -   -   -  38 49 mph 1014.2mb 55f 52f
6:50am 16.5ft 15s 7s 38 49 mph 1014.2mb 55f 52f
6:40am 16.5ft  -  7s 38 51 mph 1014.1mb 55f 52f
6:30am  -   -   -  40 51 mph 1014.1mb 55f 52f
6:20am  -   -   -  38 47 mph 1014.2mb 55f 52f
6:10am  -   -   -  40 51 mph 1014.1mb - 52f
6:00am  -   -   -  38 51 mph 1013.9mb - 52f
5:50am 17ft  -  8s 40 54 mph 1013.8mb 55f 52f
5:40am  -   -   -  40 54 mph 1013.9mb 55f 52f
5:30am  -   -   -  43 58 mph 1013.6mb 55f 52f
5:20am  -   -   -  40 56 mph 1013.6mb 55f 52f
5:10am  -   -   -  40 56 mph 1013.7mb 55f 52f
5:00am  -   -   -  40 51 mph 1013.6mb 55f 52f
4:50am 17.5ft 14s 8s 40 51 mph 1013.7mb 55f 52f
4:40am  -   -   -  40 51 mph 1013.6mb 55f 52f
4:30am  -   -   -  40 51 mph 1014.1mb 55f 52f
4:20am  -   -   -  38 49 mph 1014.1mb 55f 52f
4:10am  -   -   -  38 51 mph 1014.2mb 55f 52f
4:00am  -   -   -  38 51 mph 1014.2mb 55f 52f
3:50am 16.5ft 14s 8s 38 51 mph 1014.4mb 55f 53f
3:40am 16.5ft  -  8s 36 51 mph 1014.5mb 55f 53f
3:30am  -   -   -  36 49 mph 1014.8mb 55f 53f
3:20am  -   -   -  38 51 mph 1015mb 55f 53f
3:10am  -   -   -  38 47 mph 1014.9mb 55f 53f
3:00am  -   -   -  34 45 mph 1015.2mb 55f 53f
2:50am 18.5ft 14s 9s 36 45 mph 1015.1mb 55f 53f
2:40am 18.5ft  -  9s 36 45 mph 1015.3mb 55f 53f
2:30am  -   -   -  34 47 mph 1015.4mb 55f 54f
2:20am  -   -   -  31 40 mph 1015.6mb 55f 54f
2:10am  -   -   -  31 43 mph 1015.7mb 55f 54f
2:00am  -   -   -  31 43 mph 1015.7mb 56f 54f
1:50am 15.5ft 14s 8s 34 49 mph 1015.7mb 56f 54f
1:40am 15.5ft  -  8s 34 45 mph 1015.6mb - 54f
1:30am  -   -   -  34 45 mph 1015.6mb 56f 54f
1:20am  -   -   -  34 45 mph 1015.8mb 56f 54f
1:10am  -   -   -  34 43 mph 1016mb 56f 54f
1:00am  -   -   -  31 40 mph 1016.1mb 56f 54f
12:50am 17ft 14s 9s 31 40 mph 1016.1mb 56f 54f
12:40am 17ft  -  9s 29 43 mph 1016.3mb 56f 54f
12:30am  -   -   -  29 36 mph 1016.4mb 56f 54f
12:20am  -   -   -  29 40 mph 1016.5mb 56f 55f
12:10am  -   -   -  27 38 mph 1016.8mb 56f 55f
12:00am  -   -   -  27 38 mph 1017mb - 55f
Fri 10/20 11:50pm 17.5ft 14s 10s 27 34 mph 1017.2mb 56f 55f
11:40pm 17.5ft  -  10s 27 38 mph 1017.1mb 56f 55f
11:30pm  -   -   -  27 36 mph 1017.3mb 56f 55f
11:20pm  -   -   -  27 31 mph 1017.1mb 56f 54f
11:10pm  -   -   -  27 34 mph 1017.3mb 56f 54f
11:00pm  -   -   -  25 36 mph 1017.3mb 56f 54f
10:50pm 14.5ft 15s 10s 25 36 mph 1017.2mb 56f 54f
10:40pm 14.5ft  -  10s 22 31 mph 1017.3mb 56f 54f
10:30pm  -   -   -  22 29 mph 1017.4mb 56f 55f
10:20pm  -   -   -  22 29 mph 1017.5mb 55f 55f
10:10pm  -   -   -  20 27 mph 1017.7mb 55f 55f
10:00pm  -   -   -  22 29 mph 1017.8mb 55f 55f
9:50pm 15ft 14s 10s 22 29 mph 1018.1mb 55f 55f
9:40pm 15ft  -  10s 20 29 mph 1018.1mb 55f 55f
9:30pm  -   -   -  20 25 mph 1018.2mb 55f 55f
9:20pm  -   -   -  18 25 mph 1018.3mb 55f 55f
9:10pm  -   -   -  18 22 mph 1018.4mb 55f 55f
9:00pm  -   -   -  18 22 mph 1018.5mb 55f 55f
8:50pm 15ft 16s 10s 18 25 mph 1018.5mb 55f 56f
8:40pm  -   -   -  18 22 mph 1018.4mb 55f 56f
8:30pm  -   -   -  18 25 mph 1018.6mb 55f 56f
8:20pm  -   -   -  18 22 mph 1018.5mb 55f 56f
8:10pm  -   -   -  16 22 mph 1018.2mb 55f 56f
8:00pm  -   -   -  18 22 mph 1018.6mb 55f 56f
7:50pm 15.5ft 15s 10s 18 20 mph 1018.6mb 55f 56f
7:40pm 15.5ft  -  10s 16 22 mph 1018.4mb 55f 55f
7:30pm  -   -   -  16 20 mph 1018.3mb 55f 55f
7:20pm  -   -   -  18 22 mph 1018.5mb 55f 55f
7:10pm  -   -   -  18 22 mph 1018.6mb 55f 55f
7:00pm  -   -   -  16 22 mph 1018.5mb 55f 55f
6:50pm 16ft 15s 10s 16 22 mph 1018.5mb 55f 55f
6:40pm 16ft  -  10s 18 22 mph 1018.4mb 55f 55f
6:30pm  -   -   -  18 25 mph 1018.5mb 55f 55f
6:20pm  -   -   -  18 22 mph 1018.4mb 55f 55f
6:10pm  -   -   -  18 25 mph 1018.3mb 55f 55f
6:00pm  -   -   -  18 25 mph 1018.2mb - 55f
5:50pm 15ft  -  9s 18 25 mph 1018.1mb 55f 54f
5:40pm 15ft 15s 9s  -  mph - - -
5:30pm  -   -   -  18 25 mph 1018.3mb 55f 55f
5:20pm  -   -   -  18 25 mph 1018.2mb 55f 55f
5:10pm  -   -   -  18 25 mph 1018.1mb 55f 55f
5:00pm  -   -   -  18 27 mph 1018mb 55f 55f
4:50pm 16ft 16s 10s 20 25 mph 1018.2mb 55f 55f
4:40pm 16ft  -  10s 20 25 mph 1018.3mb 55f 55f
4:30pm  -   -   -  18 22 mph 1018.1mb 55f 55f
4:20pm  -   -   -  18 25 mph 1018mb 55f 55f
4:10pm  -   -   -  18 22 mph 1018mb 55f 55f
4:00pm  -   -   -  18 22 mph 1018mb 55f 55f
3:50pm 19.5ft 16s 11s 16 20 mph 1017.9mb 55f 56f
3:40pm  -   -   -  16 22 mph 1017.9mb 55f 56f
3:30pm  -   -   -  16 20 mph 1017.9mb 55f 55f
3:20pm  -   -   -  18 22 mph 1017.9mb 55f 55f
3:10pm  -   -   -  18 25 mph 1017.8mb 55f 55f
3:00pm  -   -   -  18 22 mph 1017.7mb 55f 56f
2:50pm 18.5ft 16s 10s 16 20 mph 1017.7mb 55f 56f
2:40pm 18.5ft  -  10s 13 18 mph 1017.7mb 55f 56f
2:30pm  -   -   -  13 18 mph 1017.6mb 55f 55f
2:20pm  -   -   -  16 20 mph 1017.5mb 55f 55f
2:10pm  -   -   -  18 22 mph 1017.4mb 55f 55f
2:00pm  -   -   -  16 20 mph 1017.4mb 55f 56f
1:50pm 18.5ft 16s 11s 16 18 mph 1017.4mb 55f 56f
1:40pm  -   -   -  13 18 mph 1017.3mb 55f 56f
1:30pm  -   -   -  13 16 mph 1017.2mb - 56f
1:20pm  -   -   -  11 18 mph 1017.2mb 55f 55f
1:10pm  -   -   -  11 16 mph 1017.2mb 56f 55f
1:00pm  -   -   -  9 16 mph 1017.1mb 55f 56f
12:50pm 18.5ft 16s 11s 9 13 mph 1017.2mb 55f 56f
12:40pm 18.5ft  -  11s 7 13 mph 1017.1mb 55f 55f
12:30pm  -   -   -  7 13 mph 1017.1mb 55f 55f
12:20pm  -   -   -  9 20 mph 1017mb 55f 55f
12:10pm  -   -   -  13 22 mph 1017mb 55f 56f
12:00pm  -   -   -  11 18 mph 1017mb 55f 56f
11:50am 19ft 14s 11s 11 18 mph 1016.6mb 55f 56f
11:40am 19ft  -  11s 11 16 mph 1016.5mb 55f 56f
11:30am  -   -   -  11 16 mph 1016.4mb 55f 56f
11:20am  -   -   -  11 16 mph 1016.4mb 55f 55f
11:10am  -   -   -  11 18 mph 1016.2mb 55f 55f
11:00am  -   -   -  13 22 mph 1016.1mb 55f 56f
10:50am 21ft 17s 12s 13 20 mph 1016mb 55f 56f
10:40am 21ft  -  12s 13 20 mph 1015.8mb 55f 56f
10:30am  -   -   -  11 20 mph 1015.5mb 55f 56f
10:20am  -   -   -  13 20 mph 1015.3mb 55f 56f
10:10am  -   -   -  11 20 mph 1015.2mb 55f 56f
10:00am  -   -   -  11 18 mph 1015.1mb - 56f
9:50am 22ft 16s 12s 11 18 mph 1014.9mb 55f 56f
9:40am  -   -   -  11 18 mph 1014.8mb 55f 56f
9:30am  -   -   -  13 20 mph 1014.6mb 55f 56f
9:20am  -   -   -  13 20 mph 1014.5mb 55f 56f
9:10am  -   -   -  11 16 mph 1014.2mb 55f 55f
9:00am  -   -   -  11 16 mph 1014.1mb 55f 55f
8:50am 19.5ft 16s 12s 13 18 mph 1013.9mb 55f 55f
7:50am 21ft 16s 12s 16 20 mph 1013mb 55f 53f
7:20am  -   -   -  13 22 mph 1012.9mb 55f 53f
7:10am  -   -   -  9 13 mph 1012.8mb 55f 51f
7:00am  -   -   -  11 20 mph 1012.6mb 55f 51f
6:50am 19.5ft 16s 12s 22 31 mph 1012.6mb 55f 53f
6:40am  -   -   -  16 20 mph 1012.2mb 55f 55f
6:30am  -   -   -  13 20 mph 1012mb 55f 55f
6:20am  -   -   -  13 20 mph 1011.9mb 55f 55f
6:10am  -   -   -  16 20 mph 1011.9mb 55f 55f
6:00am  -   -   -  13 20 mph 1011.8mb - 54f
5:50am 23.5ft 16s 12s 16 20 mph 1011.6mb 55f 54f
5:40am 23.5ft  -  12s 16 22 mph 1011.6mb 55f 53f
5:30am  -   -   -  16 25 mph 1011.8mb 55f 53f
5:20am  -   -   -  20 31 mph 1011.4mb 55f 53f
5:10am  -   -   -  18 34 mph 1011.4mb 55f 55f
5:00am  -   -   -  18 22 mph 1010.7mb 55f 55f
4:50am 22ft 17s 12s 18 25 mph 1010.6mb 55f 55f
4:40am 22ft  -  12s 16 22 mph 1010.4mb 55f 56f
4:30am  -   -   -  18 22 mph 1010.3mb 55f 55f
4:20am  -   -   -  16 20 mph 1010.2mb 55f 55f
4:10am  -   -   -  16 20 mph 1010.1mb 55f 56f
4:00am  -   -   -  18 22 mph 1009.9mb 55f 56f
3:50am 20.5ft 17s 12s 18 22 mph 1009.8mb 55f 56f
3:40am  -   -   -  16 22 mph 1009.7mb 55f 56f
3:30am  -   -   -  16 22 mph 1009.5mb - -
3:20am  -   -   -  16 20 mph 1009.2mb 55f 56f
3:10am  -   -   -  16 20 mph 1009.1mb 55f 56f
3:00am  -   -   -  13 20 mph 1009mb 55f 56f
2:50am 24ft 17s 12s 16 20 mph 1008.8mb 55f 56f
2:40am  -   -   -  18 25 mph 1008.8mb 55f 56f
2:30am  -   -   -  16 22 mph 1008.5mb 55f 56f
2:20am  -   -   -  16 25 mph 1008.4mb 55f 56f
2:10am  -   -   -  18 22 mph 1008.3mb 55f 56f
2:00am  -   -   -  18 25 mph 1008.3mb 55f 56f
1:50am 18.5ft 16s 11s 18 22 mph 1008.2mb 55f 56f
1:40am  -   -   -  16 22 mph 1008.1mb 55f 56f
1:30am  -   -   -  13 20 mph 1008mb 55f 56f
1:20am  -   -   -  13 20 mph 1007.9mb 55f 56f
1:10am  -   -   -  13 20 mph 1008mb 55f 56f
1:00am  -   -   -  13 20 mph 1008mb 55f 56f
12:50am 22ft 17s 11s 16 22 mph 1007.9mb 55f 56f
12:40am 22ft  -  11s 16 22 mph 1007.9mb 55f 56f
12:30am  -   -   -  16 20 mph 1007.9mb 55f 56f
12:20am  -   -   -  16 20 mph 1007.9mb 55f 56f
12:10am  -   -   -  13 20 mph 1007.9mb 55f 56f
12:00am  -   -   -  13 18 mph 1007.9mb 55f 55f
Thu 10/19 11:50pm 19.5ft 17s 10s 13 18 mph 1008mb 55f 55f
11:40pm 19.5ft  -  10s 13 20 mph 1007.8mb 55f 55f
11:30pm  -   -   -  13 18 mph 1007.8mb 55f 55f
11:20pm  -   -   -  11 18 mph 1007.6mb 55f 54f
11:10pm  -   -   -  11 16 mph 1007.5mb 55f 54f
11:00pm  -   -   -  11 18 mph 1007.4mb 55f 53f
10:50pm 20ft 17s 11s 11 18 mph 1007.3mb 55f 53f
10:40pm 20ft  -  11s 11 16 mph 1007.3mb 55f 52f
10:30pm  -   -   -  11 18 mph 1007.2mb 55f 51f
10:20pm  -   -   -  18 27 mph 1007.3mb 55f 51f
10:10pm  -   -   -  18 38 mph 1007.3mb 55f 55f
10:00pm  -   -   -  18 22 mph 1006.8mb 55f 55f
9:50pm 21.5ft 17s 11s 16 22 mph 1006.6mb 55f 55f
9:40pm  -   -   -  13 18 mph 1006.5mb 55f 54f
9:30pm  -   -   -  16 18 mph 1006.2mb - 54f
9:20pm  -   -   -  18 29 mph 1006.4mb 55f 53f
9:10pm  -   -   -  22 38 mph 1006.5mb 55f 55f
9:00pm  -   -   -  18 25 mph 1006mb 55f 57f
8:50pm 19.5ft 19s 11s 18 25 mph 1006.1mb 55f 57f
8:40pm 19.5ft  -  11s 16 20 mph 1006mb 55f 57f
8:30pm  -   -   -  13 18 mph 1005.8mb 55f 57f
8:20pm  -   -   -  16 20 mph 1006mb 55f 57f
8:10pm  -   -   -  16 20 mph 1005.7mb 55f 57f
8:00pm  -   -   -  18 22 mph 1005.7mb 55f 57f
7:50pm 23ft 17s 11s 16 20 mph 1005.7mb 55f 57f
7:40pm  -   -   -  16 20 mph 1005.8mb 55f 57f
7:30pm  -   -   -  18 22 mph 1005.9mb 55f 57f
7:20pm  -   -   -  18 25 mph 1005.7mb 55f 56f
7:10pm  -   -   -  18 25 mph 1005.6mb 55f 56f
7:00pm  -   -   -  18 29 mph 1005.6mb 55f 55f
6:50pm 24ft 17s 12s 20 27 mph 1005.5mb 55f 55f
6:40pm 24ft  -  12s 20 27 mph 1005.3mb 55f 55f
6:30pm  -   -   -  18 29 mph 1005.6mb 55f 55f
6:20pm  -   -   -  20 27 mph 1005.6mb 55f 55f
6:10pm  -   -   -  18 25 mph 1005.7mb 55f 56f
6:00pm  -   -   -  18 25 mph 1005.5mb 55f 56f
5:50pm 24.5ft 17s 12s 18 22 mph 1005.5mb 55f 56f
5:40pm 24.5ft  -  12s 18 22 mph 1005.6mb 55f 56f
5:30pm  -   -   -  20 31 mph 1005.6mb 55f 56f
5:20pm  -   -   -  18 25 mph 1005.7mb 55f 56f
5:10pm  -   -   -  18 22 mph 1005.8mb 55f 56f
5:00pm  -   -   -  18 25 mph 1005.7mb 55f 56f
4:50pm 23.5ft 16s 12s 18 25 mph 1005.8mb 55f 56f
4:40pm  -   -   -  18 22 mph 1005.6mb 55f 55f
4:30pm  -   -   -  16 20 mph 1006.1mb 55f 55f
4:20pm  -   -   -  16 22 mph 1005.9mb 55f 55f
4:10pm  -   -   -  18 25 mph 1006.1mb 55f 55f
4:00pm  -   -   -  18 22 mph 1005.8mb 55f 55f
3:50pm 21.5ft 16s 11s 18 25 mph 1005.9mb 55f 55f
3:40pm 21.5ft  -  11s 18 25 mph 1006mb 55f 55f
3:30pm  -   -   -  20 27 mph 1005.9mb 55f 55f
3:20pm  -   -   -  20 27 mph 1005.6mb 55f 56f
3:10pm  -   -   -  20 25 mph 1005.6mb 55f 55f
3:00pm  -   -   -  20 27 mph 1005.8mb 55f 55f
2:50pm 19.5ft 14s 10s 20 27 mph 1005.8mb 55f 56f
2:40pm 19.5ft  -  10s 25 34 mph 1005.9mb 55f 56f
2:30pm  -   -   -  25 31 mph 1005.7mb 55f 55f
2:20pm  -   -   -  25 31 mph 1005.5mb 55f 55f
2:10pm  -   -   -  25 31 mph 1005.5mb 55f 55f
2:00pm  -   -   -  25 29 mph 1005.7mb 55f 55f
1:50pm 15.5ft 14s 9s 25 31 mph 1005.6mb 55f 55f
1:40pm  -   -   -  25 31 mph 1005.9mb 55f 55f
1:30pm  -   -   -  25 31 mph 1006mb 55f 55f
1:20pm  -   -   -  27 31 mph 1006mb 55f 55f
1:10pm  -   -   -  27 36 mph 1006mb 55f 55f
1:00pm  -   -   -  27 34 mph 1006.1mb 55f 55f
12:50pm 15ft 12s 8s 27 36 mph 1006.1mb 55f 55f
12:40pm  -   -   -  29 36 mph 1006.2mb 55f 55f
12:30pm  -   -   -  29 38 mph 1006.3mb 55f 55f
12:20pm  -   -   -  29 40 mph 1006.3mb 55f 55f
12:10pm  -   -   -  31 43 mph 1006.2mb - 55f
12:00pm  -   -   -  34 45 mph 1006.3mb 55f 55f
11:50am 14.5ft 7s 7s 34 45 mph 1006.1mb 55f 55f
11:40am 14.5ft  -  7s 34 40 mph 1005.9mb 55f 55f
11:30am  -   -   -  34 43 mph 1005.9mb 55f 55f
11:20am  -   -   -  34 43 mph 1006mb 55f 55f
11:10am  -   -   -  34 45 mph 1005.8mb 55f 55f
11:00am  -   -   -  34 43 mph 1005.8mb 55f 55f
10:50am 12ft 8s 7s 36 47 mph 1005.5mb 55f 55f
10:40am 12ft  -  7s 34 43 mph 1005.2mb 55f 55f
10:30am  -   -   -  34 43 mph 1005.5mb 55f 55f
10:20am  -   -   -  34 43 mph 1006mb 55f 55f
10:10am  -   -   -  34 45 mph 1005.9mb 55f 55f
10:00am  -   -   -  34 40 mph 1006mb 55f 55f
9:50am 12.5ft 7s 7s 34 43 mph 1006.1mb 55f 55f
9:40am 12.5ft  -  7s 34 40 mph 1006.1mb 55f 55f
9:30am  -   -   -  34 45 mph 1006mb 55f 55f
9:20am  -   -   -  34 43 mph 1006mb 55f 54f
9:10am  -   -   -  34 43 mph 1006.1mb 55f 54f
9:00am  -   -   -  34 43 mph 1006mb 55f 54f
8:50am 12.5ft 7s 7s 34 43 mph 1006mb 55f 54f
8:40am 12.5ft  -  7s 34 43 mph 1006mb 55f 54f
8:30am  -   -   -  34 45 mph 1006mb 55f 54f
8:20am  -   -   -  34 47 mph 1006mb 55f 54f
8:10am  -   -   -  34 43 mph 1006mb 55f 54f
8:00am  -   -   -  34 43 mph 1006.1mb 55f 54f
7:50am 12.5ft 7s 7s 34 43 mph 1006.2mb 55f 54f
7:40am 12.5ft  -  7s 36 45 mph 1006.4mb 55f 54f
7:30am  -   -   -  36 47 mph 1006.4mb 55f 54f
7:20am  -   -   -  36 45 mph 1006.4mb 55f 54f
7:10am  -   -   -  34 45 mph 1006.5mb 55f 54f
7:00am  -   -   -  36 45 mph 1006.5mb 55f 54f
6:50am 13ft 11s 7s 36 45 mph 1006.8mb 55f 54f
6:40am  -   -   -  36 47 mph 1006.7mb 55f 54f
6:30am  -   -   -  36 47 mph 1006.8mb 55f 54f
6:20am  -   -   -  34 43 mph 1007.2mb 55f 54f
6:10am  -   -   -  36 47 mph 1007.4mb 55f 54f
6:00am  -   -   -  36 49 mph 1007.5mb 55f 54f
5:50am 12ft 6s 7s 34 45 mph 1007.6mb 55f 54f
5:40am  -   -   -  34 45 mph 1007.7mb 54f 54f
5:30am  -   -   -  36 45 mph 1007.8mb 54f 54f
5:20am  -   -   -  36 47 mph 1008mb 54f 54f
5:10am  -   -   -  34 45 mph 1008.1mb 55f 54f
5:00am  -   -   -  36 45 mph 1008.2mb 54f 54f
4:50am 12ft 11s 7s 34 45 mph 1008.1mb 54f 54f
4:40am 12ft  -  7s 34 45 mph 1008.3mb 54f 54f
4:30am  -   -   -  34 45 mph 1008.3mb 54f 54f
4:20am  -   -   -  34 43 mph 1008.3mb 54f 54f
4:10am  -   -   -  34 45 mph 1008.2mb 54f 54f
4:00am  -   -   -  36 45 mph 1008.4mb 54f 54f
3:50am 13ft 10s 7s 34 47 mph 1008.8mb 54f 54f
3:40am 13ft  -  7s 34 45 mph 1008.7mb 55f 54f
3:30am  -   -   -  34 43 mph 1009mb 55f 54f
3:20am  -   -   -  34 40 mph 1009.2mb 55f 54f
3:10am  -   -   -  34 43 mph 1009.2mb 55f 54f
3:00am  -   -   -  31 43 mph 1009.2mb 55f 54f
2:50am 12ft 10s 7s 31 43 mph 1009.5mb 55f 55f
2:40am  -   -   -  31 43 mph 1009.5mb 55f 55f
2:30am  -   -   -  31 40 mph 1009.8mb 55f 55f
2:20am  -   -   -  31 40 mph 1010mb 55f 55f
2:10am  -   -   -  31 43 mph 1010mb 55f 55f
2:00am  -   -   -  29 40 mph 1010.3mb 55f 55f
1:50am 10ft 10s 7s 29 38 mph 1010.2mb 55f 55f
1:40am  -   -   -  29 40 mph 1010.3mb 55f 55f
1:30am  -   -   -  29 38 mph 1010.3mb 55f 55f
1:20am  -   -   -  29 38 mph 1010.4mb 55f 55f
1:10am  -   -   -  29 38 mph 1010.5mb 55f 55f
1:00am  -   -   -  29 38 mph 1010.5mb 55f 55f
12:50am 10ft 9s 7s 29 38 mph 1010.5mb 55f 55f
12:40am  -   -   -  27 36 mph 1010.7mb 55f 55f
12:30am  -   -   -  27 36 mph 1010.7mb 55f 55f
12:20am  -   -   -  27 34 mph 1011mb 55f 55f
12:10am  -   -   -  27 34 mph 1011.2mb 55f 55f
12:00am  -   -   -  25 34 mph 1011.4mb - 55f
Wed 10/18 11:50pm 9.5ft 9s 6s 27 34 mph 1011.7mb 55f 55f
11:40pm  -   -   -  25 34 mph 1011.9mb 55f 56f
11:30pm  -   -   -  25 31 mph 1012.1mb 55f 56f
11:20pm  -   -   -  25 31 mph 1012.2mb 55f 56f
11:10pm  -   -   -  25 31 mph 1012.3mb 55f 56f
11:00pm  -   -   -  25 34 mph 1012.4mb 55f 56f
10:50pm 9ft 9s 6s 25 31 mph 1012mb 55f 56f
10:40pm 9ft  -  6s 27 36 mph 1011.9mb 55f 56f
10:30pm  -   -   -  25 31 mph 1012.2mb 55f 56f
10:20pm  -   -   -  25 31 mph 1012.3mb 55f 56f
10:10pm  -   -   -  25 29 mph 1012.6mb 55f 56f
10:00pm  -   -   -  22 29 mph 1012.6mb 55f 56f
9:50pm 8ft 10s 6s 22 29 mph 1012.7mb 55f 56f
9:40pm 8ft  -  6s 22 29 mph 1012.8mb 55f 55f
9:30pm  -   -   -  22 29 mph 1013mb 55f 55f
9:20pm  -   -   -  22 27 mph 1013.2mb 55f 56f
9:10pm  -   -   -  22 29 mph 1013.1mb 55f 56f
9:00pm  -   -   -  22 27 mph 1013.1mb 55f 56f
8:50pm 8ft 10s 6s 22 29 mph 1013mb 54f 55f
8:40pm 8ft  -  6s 22 27 mph 1013mb 54f 55f
8:30pm  -   -   -  22 29 mph 1013mb 55f 55f
8:20pm  -   -   -  22 27 mph 1013mb 54f 55f
8:10pm  -   -   -  22 29 mph 1013mb 54f 55f
8:00pm  -   -   -  22 29 mph 1013.2mb 54f 55f
7:50pm 7ft 17s 6s 22 29 mph 1013.4mb 54f 55f
7:40pm  -   -   -  22 29 mph 1013.5mb 54f 55f
7:30pm  -   -   -  22 29 mph 1013.7mb 54f 55f
7:20pm  -   -   -  22 29 mph 1013.7mb 54f 55f
7:10pm  -   -   -  22 27 mph 1013.8mb 53f 55f
7:00pm  -   -   -  22 27 mph 1013.9mb 53f 55f
6:50pm 6.5ft 9s 6s 22 27 mph 1014mb 53f 55f
6:40pm  -   -   -  22 27 mph 1014mb 53f 55f
6:30pm  -   -   -  22 27 mph 1013.8mb 53f 54f
6:20pm  -   -   -  20 27 mph 1014mb 53f 54f
6:10pm  -   -   -  20 25 mph 1014.3mb 53f 54f
6:00pm  -   -   -  20 25 mph 1014.3mb 53f 54f
5:50pm 6.5ft 10s 6s 20 25 mph 1014.4mb 53f 54f
5:40pm 6.5ft  -  6s 20 27 mph 1014.5mb 53f 54f
5:30pm  -   -   -  20 27 mph 1014.4mb 53f 54f
5:20pm  -   -   -  20 25 mph 1014.7mb 53f 54f
5:10pm  -   -   -  20 25 mph 1014.8mb 53f 54f
5:00pm  -   -   -  18 25 mph 1015mb 53f 54f
4:50pm 6ft 17s 6s 18 22 mph 1015mb 53f 55f
4:40pm 6ft  -  6s 18 22 mph 1015mb 53f 55f
4:30pm  -   -   -  18 25 mph 1015.3mb 53f 55f
4:20pm  -   -   -  20 25 mph 1015.3mb 53f 55f
4:10pm  -   -   -  20 25 mph 1015.3mb 53f 55f
4:00pm  -   -   -  20 25 mph 1015.4mb 53f 55f
3:50pm 7ft 10s 7s 18 25 mph 1015.5mb 53f 55f
3:40pm  -   -   -  20 22 mph 1015.6mb 53f 55f
3:30pm  -   -   -  20 25 mph 1015.6mb 53f 55f
3:20pm  -   -   -  20 25 mph 1015.7mb 53f 55f
3:10pm  -   -   -  18 22 mph 1015.9mb 53f 55f
3:00pm  -   -   -  18 22 mph 1015.9mb 53f 55f
2:50pm 7ft 10s 7s 18 20 mph 1016.2mb 53f 55f
2:40pm  -   -   -  18 20 mph 1016.4mb 53f 54f
2:30pm  -   -   -  18 22 mph 1016.4mb 53f 54f
2:20pm  -   -   -  18 22 mph 1016.5mb 53f 55f
2:10pm  -   -   -  18 22 mph 1016.5mb 53f 55f
2:00pm  -   -   -  18 25 mph 1016.6mb 52f 54f
1:50pm 7.5ft 10s 7s 16 20 mph 1016.6mb 52f 54f
1:40pm  -   -   -  16 20 mph 1016.8mb 52f 54f
1:30pm  -   -   -  18 22 mph 1016.7mb 52f 54f
1:20pm  -   -   -  18 22 mph 1016.8mb 52f 54f
1:10pm  -   -   -  16 20 mph 1017.1mb 52f 54f
1:00pm  -   -   -  16 20 mph 1017.2mb 52f 54f
12:50pm 7.5ft 10s 8s 16 22 mph 1017.4mb 52f 54f
12:40pm 7.5ft  -  8s 16 20 mph 1017.4mb 52f 54f
12:30pm  -   -   -  16 20 mph 1017.5mb 52f 54f
12:20pm  -   -   -  16 18 mph 1017.6mb 52f 54f
12:10pm  -   -   -  16 20 mph 1017.6mb 52f 54f
12:00pm  -   -   -  16 18 mph 1017.5mb 52f 54f
11:50am 7.5ft 10s 8s 16 18 mph 1017.5mb 52f 54f
11:40am 7.5ft  -  8s 16 18 mph 1017.4mb 52f 54f
11:30am  -   -   -  16 18 mph 1017.3mb 52f 53f
11:20am  -   -   -  16 18 mph 1017.4mb 52f 53f
11:10am  -   -   -  16 20 mph 1017.4mb 52f 53f
11:00am  -   -   -  16 20 mph 1017.4mb 52f 53f
10:50am 7.5ft 10s 8s 16 18 mph 1017.4mb 52f 53f
10:40am 7.5ft  -  8s 16 20 mph 1017.5mb 52f 53f
10:30am  -   -   -  16 20 mph 1017.5mb 52f 53f
10:20am  -   -   -  13 18 mph 1017.4mb 52f 53f
10:10am  -   -   -  13 16 mph 1017.4mb 52f 53f
10:00am  -   -   -  13 16 mph 1017.5mb 52f 53f
9:50am 7.5ft 10s 8s 13 16 mph 1017.4mb 52f 53f
9:40am  -   -   -  13 16 mph 1017.4mb 52f 53f
9:30am  -   -   -  13 18 mph 1017.4mb - 53f
9:20am  -   -   -  11 16 mph 1017.4mb 52f 53f
9:10am  -   -   -  11 16 mph 1017.5mb 52f 53f
9:00am  -   -   -  11 13 mph 1017.6mb 52f 53f
8:50am 7.5ft 11s 8s 9 13 mph 1017.7mb 52f 53f
8:40am 7.5ft  -  8s 11 13 mph 1017.6mb 52f 53f
8:30am  -   -   -  11 13 mph 1017.6mb 52f 53f
8:20am  -   -   -  11 13 mph 1017.6mb 52f 53f
8:10am  -   -   -  11 13 mph 1017.5mb 52f 53f
8:00am  -   -   -  11 13 mph 1017.4mb 52f 53f
7:50am 7.5ft 17s 9s 9 13 mph 1017.5mb 52f 53f
7:40am  -   -   -  9 13 mph 1017.6mb 52f 53f
7:30am  -   -   -  9 13 mph 1017.6mb 52f 53f
7:20am  -   -   -  9 13 mph 1017.7mb 52f 54f
7:10am  -   -   -  9 13 mph 1017.6mb 52f 54f
7:00am  -   -   -  9 13 mph 1017.7mb 52f 54f
6:50am 7.5ft 10s 9s 9 13 mph 1017.7mb 52f 54f
6:40am 7.5ft  -  9s 11 16 mph 1017.7mb 52f 53f
6:30am  -   -   -  11 16 mph 1017.7mb 52f 53f
6:20am  -   -   -  9 16 mph 1017.9mb - 53f
6:10am  -   -   -  9 16 mph 1018mb 52f 53f
6:00am  -   -   -  9 16 mph 1018.1mb 52f 53f
5:50am 7ft 9s 9s 9 13 mph 1018.2mb 52f 53f
5:40am 7ft  -  9s 9 11 mph 1018.3mb 52f 53f
5:30am  -   -   -  9 13 mph 1018.4mb 52f 53f
5:20am  -   -   -  9 11 mph 1018.5mb 52f 53f
5:10am  -   -   -  11 13 mph 1018.4mb 52f 53f
5:00am  -   -   -  11 13 mph 1018.3mb 52f 53f
4:50am 8ft 11s 9s 9 13 mph 1018.4mb 52f 53f
4:40am 8ft  -  9s 9 13 mph 1018.5mb 52f 53f
4:30am  -   -   -  7 11 mph 1018.6mb 52f 53f
4:20am  -   -   -  7 9 mph 1018.6mb 52f 53f
4:10am  -   -   -  7 9 mph 1018.7mb 52f 53f
4:00am  -   -   -  7 9 mph 1018.7mb 52f 53f
3:50am 7ft 11s 8s 7 9 mph 1018.8mb 52f 53f
3:40am 7ft  -  8s 7 11 mph 1018.8mb 52f 53f
3:30am  -   -   -  7 11 mph 1018.8mb 52f 53f